Zurück zum Katalog

BRISAT

AktivKommunikationGEO
NORAD 41591·PAYLOAD·🇮🇩 Indonesia

Gestartet Jun 18, 2016 von Guiana Space Centre

Loading…

TLE

AktuellSource: Space-Track

Epoche: Sep 14, 2026, 12:44 UTC

1 41591U 16039A   26257.53075176 -.00000204  00000-0  00000-0 0  9992
2 41591   0.0158 238.8797 0002053 286.7709 169.4309  1.00271884 37507

Verfolge BRISAT in Echtzeit mit AllMySat

Download on the App Store